Location: St. Louis
(38.6270°N, 90.1994°W)
Time: 12:59:51
(UTC-06:00)

Transit 4A - Pass Details

Date: 06 December 2021
Orbit: 864 x 980 km, 66.8° (Epoch: 16 January)

Event Time Altitude Azimuth Distance (km) Brightness Sun altitude
Rises 04:25:19 0° 326° (NW) 3,631 - -30.4°
Reaches altitude 10° 04:27:54 10° 322° (NW) 2,697 - -29.9°
Maximum altitude 04:33:59 52° 248° (WSW) 1,191 - -28.7°
Exits shadow 04:35:52 40° 200° (SSW) 1,409 8.7 -28.3°
Drops below altitude 10° 04:40:09 10° 173° (S) 2,721 10.5 -27.5°
Sets 04:42:46 0° 169° (S) 3,666 11.3 -27.0°
